Back to catalog

FENGYUN 1C DEB

AliveSSO
NORAD 32203·DEBRIS·🇨🇳 China

Launched May 10, 1999 from Taiyuan Satellite Launch Center

Loading…

Next Passes (next 24 hours)

TLE

FreshSource: Space-Track

Epoch: Sep 14, 2026, 03:39 UTC

1 32203U 99025CUZ 26257.15224867  .00067483  00000-0  49545-3 0  9990
2 32203  96.9685 147.1572 0080030 147.0056 213.6238 15.68558722793740

Track FENGYUN 1C DEB in real time with AllMySat

Download on the App Store